Regional Weather Roundup
Issued by NWS

Home | Current Version | Previous Version | Text Only | Print | Product List | Glossary Off
Versions: 1 2 3 4 5 6 7 8 9 10 11 12 13 14 15 16 17 18 19 20 21 22 23 24 25 26 27 28 29 30 31 32 33 34 35 36 37 38 39 40 41 42 43 44 45 46 47 48 49 50

000
ASUS43 KMPX 190510
RWRMN
WEATHER ROUNDUP FOR MINNESOTA
NATIONAL WEATHER SERVICE TWIN CITIES/CHANHASSEN MN
1200 AM CDT SUN APR 19 2015


NOTE: "FAIR" INDICATES FEW OR NO CLOUDS BELOW 12,000 FEET WITH NO
SIGNIFICANT WEATHER AND/OR OBSTRUCTIONS TO VISIBILITY. N/A MEANS
CURRENT SKY AND/OR WEATHER CONDITIONS ARE NOT AVAILABLE.

MNZ060>063-068>070-190600-
   Twin Cities Metro

CITY           SKY/WX    TMP DP  RH WIND       PRES   REMARKS
TWIN CITIES    LGT RAIN  54  47  77 E20       29.88F
ST PAUL        LGT RAIN  53  44  71 SE16G22   29.91F
CRYSTAL        LGT RAIN  55  46  71 E12G20    29.87F
BLAINE         RAIN      54  46  76 E10       29.90S
LAKEVILLE      LGT RAIN  52  46  82 E13       29.87F
EDEN PRAIRIE   LGT RAIN  56  48  74 E18G25    29.85F
SOUTH ST PAUL  LGT RAIN  53  46  76 SE8       29.90F
LAKE ELMO      LGT RAIN  52  43  71 SE9       29.93S
$$
MNZ001>005-007-008-013>017-022>024-027-028-190600-
   Northwest Minnesota

CITY           SKY/WX    TMP DP  RH WIND       PRES   REMARKS
BEMIDJI        CLOUDY    50  32  50 SE12      29.88F
HALLOCK        CLOUDY    55  28  35 SE10      29.80F
ROSEAU         CLOUDY    55  28  35 SE10      29.84F
WARROAD        CLOUDY    52  30  43 SE9       29.86F
THIEF RVR FALL CLOUDY    55  30  38 SE8       29.84F
CROOKSTON      CLOUDY    57  32  38 SE8       29.82F
FOSSTON        CLOUDY    54  32  43 SE9G20    29.84F
DETROIT LAKES  CLOUDY    55  34  44 SE14G22   29.85F
MOORHEAD       CLOUDY    59  39  47 S10       29.82S
PARK RAPIDS    CLOUDY    50  32  50 SE9G17    29.88F
MAHNOMEN       CLOUDY    57  33  41 SE10      29.83F
$$
MNZ006-009>011-018-025>026-190600-
   North Central Minnesota

CITY           SKY/WX    TMP DP  RH WIND       PRES   REMARKS
BAUDETTE       CLOUDY    50  25  37 SE10      29.88F
FLAG ISLAND    CLOUDY    48  25  40 SE7       29.86F
INTL FALLS     CLOUDY    47  24  40 SE14      29.93F
WASKISH        CLOUDY    50  34  53 SE8       29.89F
BIG FORK       CLOUDY    46  27  46 SE9       29.93F
LONGVILLE      CLOUDY    46  30  53 SE6       29.91F
GRAND RAPIDS   CLOUDY    43  21  42 SE7       29.93F
ORR            CLOUDY    43  18  36 CALM      29.93F
COOK           CLOUDY    43  21  42 CALM      29.96F
WALKER         FAIR      48  35  61 E6        29.90F
$$
MNZ012-019>021-037-190600-
   Northeast Minnesota

CITY           SKY/WX    TMP DP  RH WIND       PRES   REMARKS
DULUTH         CLOUDY    40  27  59 E14       29.97F
ELY            CLOUDY    43  16  33 E6        29.97F
HIBBING        CLOUDY    42  21  43 E5        29.94F
EVELETH        CLOUDY    39  21  48 E3        29.97F
DULUTH HARBOR  CLOUDY    39  34  81 E17       30.01F
TWO HARBORS    CLOUDY    45  28  53 NE9       29.98F
SILVER BAY     CLOUDY    41  27  56 NE9       30.00F
GRAND MARAIS     N/A     42  24  49 NE16G25   30.08F
G MARAIS ARPRT MOCLDY    37  16  41 E13G21    30.06S
$$
MNZ029>031-032-039>041-046>048-054>057-064-190600-
   West Central Minnesota

CITY           SKY/WX    TMP DP  RH WIND       PRES   REMARKS
FERGUS FALLS   LGT RAIN  52  46  82 SE9       29.86F
WHEATON        LGT RAIN  50  46  87 E10G16    29.83F
MORRIS         LGT RAIN  52  48  87 E14       29.79F
ALEXANDRIA     LGT RAIN  49  45  86 E15       29.83F
ELBOW LAKE     RAIN      51  47  89 E8        29.83F
WADENA         MIX PCPN  45  43  93 E7        29.87F
GLENWOOD       DRIZZLE   48  46  93 NE15      29.82F
APPLETON       RAIN      54  52  94 E12       29.77F
BENSON         LGT RAIN  52  46  82 SE10      29.78F
ORTONVILLE     RAIN      52  48  87 NE7       29.78F
MADISON        DRIZZLE   54  52  94 E3        29.77F
WILLMAR        LGT RAIN  57  55  94 SE18      29.80F
$$
MNZ033>034-036-042>043-049>051-058-059-190600-
   Central Minnesota

CITY           SKY/WX    TMP DP  RH WIND       PRES   REMARKS
ST CLOUD       LGT RAIN  50  44  80 E10       29.85F
SAUK CENTRE    DRIZZLE   48  43  83 E14       29.82F
PAYNESVILLE    LGT RAIN  50  46  85 NE8G16    29.82F
AITKIN         MIX PCPN  43  34  70 E3        29.91F
PINE RIVER     LGT RAIN  43  36  75 SE5       29.95F
BRAINERD         N/A    N/A N/A N/A MISG      29.91F
STAPLES        RAIN      43  41  93 E7        29.88F
LONG PRAIRIE   LGT RAIN  45  43  93 NE14      29.85F
LITTLE FALLS   RAIN      45  39  81 E9G17     29.88F
LITCHFIELD     CLOUDY    57  55  94 SE14G23   29.82F
BUFFALO        LGT RAIN  57  53  88 E9        29.84F
MAPLE LAKE     LGT RAIN  54  49  85 E10       29.85F
$$
MNZ037-044-045-052-053-190600-
   East Central Minnesota

CITY           SKY/WX    TMP DP  RH WIND       PRES   REMARKS
PRINCETON      LGT RAIN  54  43  66 E13G20    29.88F
MORA           CLOUDY    45  34  65 E3        29.93F
CAMBRIDGE      LGT RAIN  54  41  62 E7        29.89S
RUSH CITY      LGT RAIN  50  38  63 NE3       29.92F
MOOSE LAKE     CLOUDY    37  32  81 CALM      29.93F
HINCKLEY       CLOUDY    43  36  75 CALM      29.93F
CLOQUET        CLOUDY    39  28  65 E10       29.96F
MCGREGOR       CLOUDY    39  32  75 E8        29.94F
$$
MNZ071>073-080-081-089-090-097-098-190600-
   Southwest Minnesota

CITY           SKY/WX    TMP DP  RH WIND       PRES   REMARKS
MONTEVIDEO     DRIZZLE   55  55 100 S7        29.78F
GRANITE FALLS  RAIN      56  55  96 SE12      29.80F
CANBY          DRIZZLE   55  53  95 CALM      29.78F
MARSHALL       CLOUDY    55  52  88 S13       29.77F
REDWOOD FALLS  CLOUDY    57  55  93 SE16      29.79F
OLIVIA         CLOUDY    54  52  94 SE14G22   29.79F
PIPESTONE      DRIZZLE   55  54  94 S7        29.78F
WINDOM         CLOUDY    57  55  94 SE8       29.81F
WORTHINGTON    CLOUDY    54  52  94 SE9       29.80F
JACKSON        DRIZZLE   55  54  94 SE9       29.81F
TRACY          DRIZZLE   56  55  96 S8        29.79F
SLAYTON        CLOUDY    53  53 100 SE12      29.80F FOG
$$
MNZ065>067-074>077-082>085-091>093-190600-
   South Central Minnesota

CITY           SKY/WX    TMP DP  RH WIND       PRES   REMARKS
MANKATO        CLOUDY    55  46  71 E22       29.80F
NEW ULM        RAIN      55  54  94 SE12      29.81F
ST JAMES       DRIZZLE   55  52  88 E10       29.81F
FAIRMONT       CLOUDY    55  45  67 SE10      29.81S
GLENCOE        RAIN      56  54  91 E17       29.82F
FARIBAULT      CLOUDY    54  52  94 E10G17    29.85F
OWATONNA       CLOUDY    55  48  76 E14       29.84F
ALBERT LEA     DRIZZLE   55  50  82 E13       29.82F
$$
MNZ078>079-086>088-094>096-190600-
   Southeast Minnesota

CITY           SKY/WX    TMP DP  RH WIND       PRES   REMARKS
ROCHESTER      LGT RAIN  53  44  71 E13       29.90F
RED WING       LGT RAIN  52  45  76 E7        29.92F
STANTON        LGT RAIN  53  47  79 E14       29.86F
DODGE CENTER   DRIZZLE   55  48  76 E16       29.87F
WINONA         CLOUDY    55  36  47 SE5       29.95R
AUSTIN         CLOUDY    55  48  76 E15G22    29.84F
PRESTON        LGT RAIN  55  43  63 SE6       29.92F
$$
ABBREVIATIONS USED IN REMARKS
   TC - TEMPERATURES IN CELSIUS
  WCI - WIND CHILL INDEX
   HX - HEAT INDEX
  VSB - VISIBILITY
$$



USA.gov is the U.S. government's official web portal to all federal, state and local government web resources and services.